Regional Weather Roundup
Issued by NWS Little Rock, AR

Home | Current Version | Previous Version | Text Only | Print | Product List | Glossary Off
Versions: 1 2 3 4 5 6 7 8 9 10 11 12 13 14 15 16 17 18 19 20 21 22 23 24 25 26 27 28 29 30 31 32 33 34 35 36 37 38 39 40 41 42 43 44 45 46 47 48 49 50

000
ASUS44 KLZK 051305
RWRLZK

WEATHER ROUNDUP FOR ARKANSAS
NATIONAL WEATHER SERVICE LITTLE ROCK AR
700 AM CST FRI FEB 05 2016

NOTE: "FAIR" INDICATES FEW OR NO CLOUDS BELOW 12,000 FEET WITH NO
SIGNIFICANT WEATHER AND/OR OBSTRUCTIONS TO VISIBILITY.

ARZ001-003-010-029-051400-
NORTHWEST ARKANSAS

CITY           SKY/WX    TMP DP  RH WIND       PRES   REMARKS
FAYETTEVILLE   CLOUDY    22  19  89 CALM      30.40R
FORT SMITH     CLOUDY    28  20  71 NE6       30.45R WCI  22
HARRISON       CLOUDY    26  17  68 E5        30.38R WCI  20
BENTONVILLE    CLOUDY    28  16  59 CALM      30.39R
ROGERS         CLOUDY    29  20  69 S5        30.39R WCI  24
SILOAM SPGS    CLOUDY    30  12  47 S5        30.39R WCI  25
HIGHFILL       PTCLDY    29  17  61 SW5       30.38R WCI  24
SPRINGDALE     CLEAR     28  18  64 CALM      30.41R
$$

ARZ004-005-016-051400-
NORTH CENTRAL ARKANSAS

CITY           SKY/WX    TMP DP  RH WIND       PRES   REMARKS
BATESVILLE     CLOUDY    27  18  69 CALM      30.45R
FLIPPIN        CLOUDY    23  16  74 CALM      30.39R
MTN HOME       CLOUDY    29  15  56 CALM      30.40R
$$

ARZ040-041-051400-
WEST CENTRAL ARKANSAS

CITY           SKY/WX    TMP DP  RH WIND       PRES   REMARKS
MENA           CLOUDY    23  19  86 CALM      30.44R
MOUNT IDA      CLOUDY    20  17  88 CALM      30.44R
$$

ARZ009-017-025-026-028-051400-
NORTHEAST ARKANSAS

CITY           SKY/WX    TMP DP  RH WIND       PRES   REMARKS
CORNING        FAIR      27  25  93 CALM      30.44R
JONESBORO      PTCLDY    25  23  92 CALM      30.44R
NEWPORT        CLOUDY    27  24  88 S6        30.47R WCI  21
WALNUT RIDGE   CLOUDY    27  19  74 W3        30.45R
BLYTHEVILLE    CLEAR     30  24  78 SW7       30.45R WCI  23
$$

ARZ022-023-033-042-044-051400-
CENTRAL ARKANSAS

CITY           SKY/WX    TMP DP  RH WIND       PRES   REMARKS
LITTLE ROCK    CLOUDY    27  20  75 W5        30.48R WCI  22
N LITTLE ROCK    N/A     37  17  45 W5        30.48R
SEARCY         CLOUDY    22  21  96 CALM      30.49R
HOT SPRINGS    CLOUDY    24  20  84 CALM      30.47R
RUSSELLVILLE   CLOUDY    23  21  92 CALM      30.45R
CLINTON        FAIR      19  18  93 CALM      30.47R
$$

ARZ036-051400-
EAST ARKANSAS

CITY           SKY/WX    TMP DP  RH WIND       PRES   REMARKS
WEST MEMPHIS   CLOUDY    28  26  92 S5        30.45R WCI  23
$$

ARZ050-053-066-070-073-051400-
SOUTHWEST ARKANSAS

CITY           SKY/WX    TMP DP  RH WIND       PRES   REMARKS
ARKADELPHIA    FAIR      22  22 100 CALM      30.50R
CAMDEN         CLOUDY    23  18  80 MISG      30.49R
TEXARKANA      CLEAR     28  24  85 CALM      30.46R
EL DORADO      CLOUDY    23  20  88 CALM      30.48R
DE QUEEN       CLOUDY    23  21  92 CALM      30.46R
$$

ARZ056-057-069-051400-
SOUTHEAST ARKANSAS

CITY           SKY/WX    TMP DP  RH WIND       PRES   REMARKS
PINE BLUFF     CLOUDY    27  22  81 CALM      30.49R
STUTTGART      CLEAR     30  27  86 SW7       30.48R WCI  23
MONTICELLO     CLOUDY    29  22  75 W3        30.48R

$$





USA.gov is the U.S. government's official web portal to all federal, state and local government web resources and services.